This demonstration page uses our WeatherBlox Daily Observations layout. Learn more.

Left ArrowRight Arrow

38.20091, -84.87328

Hourly Observations for October 16, 2018

Temp ( °F °C ) Dew Point ( °F °C ) Humidity (%) Winds ( mph kmh ) Pressure ( in mb ) Visibility ( mi km ) Precip ( " mm )
12:53 am 00:53 Clear 45 7.2 40 4.4 83 83 N 5 7 30.27 1025 10 16 0.00 0.00
1:53 am 01:53 Clear 45 7.2 41 5 86 86 N 5 7 30.27 1025 10 16 0.00 0.00
2:53 am 02:53 Clear 44 6.7 41 5 89 89 Calm 30.30 1026 10 16 0.00 0.00
3:53 am 03:53 Clear 43 6.1 41 5 93 93 N 3 6 30.28 1025 10 16 0.00 0.00
4:53 am 04:53 Clear 43 6.1 40 4.4 89 89 N 3 6 30.28 1025 10 16 0.00 0.00
5:53 am 05:53 Clear 42 5.6 40 4.4 92 92 Calm 30.30 1026 10 16 0.00 0.00
6:53 am 06:53 Clear 42 5.6 40 4.4 92 92 Calm 30.29 1026 10 16 0.00 0.00
7:53 am 07:53 Sunny 42 5.6 39 3.9 89 89 Calm 30.29 1026 10 16 0.00 0.00
8:53 am 08:53 Sunny 43 6.1 39 3.9 86 86 Calm 30.30 1026 10 16 0.00 0.00
9:53 am 09:53 Sunny 45 7.2 39 3.9 80 80 ENE 3 6 30.29 1026 10 16 0.00 0.00
10:53 am 10:53 Sunny 47 8.3 38 3.3 71 71 VRB 3 6 30.29 1026 10 16 0.00 0.00
11:53 am 11:53 Sunny 48 8.9 38 3.3 68 68 Calm 30.28 1026 10 16 0.00 0.00
12:53 pm 12:53 Sunny 51 10.6 40 4.4 66 66 VRB 3 6 30.27 1025 10 16 0.00 0.00
1:53 pm 13:53 Sunny 52 11.1 39 3.9 61 61 Calm 30.24 1024 10 16 0.00 0.00
2:53 pm 14:53 Sunny 52 11.1 40 4.4 64 64 Calm 30.20 1023 10 16 0.00 0.00
3:53 pm 15:53 Sunny 52 11.1 39 3.9 61 61 SW 6 9 30.20 1023 10 16 0.00 0.00
4:53 pm 16:53 Sunny 52 11.1 41 5 66 66 SSW 3 6 30.17 1022 10 16 0.00 0.00
5:53 pm 17:53 Sunny 51 10.6 41 5 69 69 undefined N/A 30.18 1022 10 16 0.00 0.00
6:53 pm 18:53 Sunny 50 10 43 6.1 77 77 Calm 30.17 1022 10 16 0.00 0.00
7:53 pm 19:53 Mostly Cloudy 48 8.9 44 6.7 86 86 WSW 3 6 30.18 1022 10 16 0.00 0.00
8:53 pm 20:53 Clear 47 8.3 43 6.1 86 86 WSW 3 6 30.19 1022 10 16 0.00 0.00
9:53 pm 21:53 Clear 44 6.7 41 5 89 89 SW 3 6 30.20 1023 10 16 0.00 0.00
10:53 pm 22:53 Clear 43 6.1 40 4.4 89 89 SSW 3 6 30.21 1023 10 16 0.00 0.00
11:53 pm 23:53 Clear 44 6.7 40 4.4 85 85 W 5 7 30.22 1023 10 16 0.00 0.00

Powered by AerisWeather